Location: Newark
(47.3153°N, 5.7094°E)
Time: 08:20:35
(UTC+00:00)

Envisat - Visible Passes

Search period start: 19 September 2019 00:00
Search period end: 29 September 2019 00:00
Orbit: 764 x 766 km, 98.1° (Epoch: 19 September)

Date Brightness Start Highest point End Pass type
(mag) Time Alt. Az. Time Alt. Az. Time Alt. Az.
19 Sep 4.6 18:22:36 10° SSW 18:27:19 38° W 18:32:05 10° NNW visible
20 Sep 6.3 19:28:57 10° W 19:30:17 11° W 19:31:36 10° WNW visible
21 Sep 5.5 18:49:01 10° SW 18:53:02 23° W 18:57:05 10° NW visible
22 Sep 4.2 18:11:07 10° S 18:16:00 48° W 18:20:56 10° NNW visible
23 Sep 6.0 19:16:16 10° WSW 19:18:51 14° W 19:21:28 10° NW visible
24 Sep 5.2 18:37:19 10° SSW 18:41:41 29° W 18:46:05 10° NW visible
25 Sep 3.7 17:59:43 10° S 18:04:43 60° W 18:09:45 10° NNW visible
26 Sep 5.9 19:04:07 10° SW 19:07:28 17° W 19:10:48 10° NW visible
27 Sep 4.8 18:25:42 10° SSW 18:30:20 35° W 18:35:01 10° NNW visible
28 Sep 3.3 17:48:22 10° S 17:53:26 74° WSW 17:58:32 10° NNW visible
